TimeCST,TemperatureF,Dew PointF,Humidity,Sea Level PressureIn,VisibilityMPH,Wind Direction,Wind SpeedMPH,Gust SpeedMPH,PrecipitationIn,Events,Conditions,WindDirDegrees,DateUTC
12:53 AM,57.9,50.0,75,30.19,10.0,East,4.6,-,N/A,,Clear,80,2012-11-19 06:53:00
1:53 AM,57.0,51.1,81,30.19,10.0,Calm,Calm,-,N/A,,Clear,0,2012-11-19 07:53:00
2:53 AM,55.9,51.1,84,30.19,10.0,Calm,Calm,-,N/A,,Clear,0,2012-11-19 08:53:00
3:53 AM,55.0,50.0,83,30.18,10.0,NNE,3.5,-,N/A,,Clear,20,2012-11-19 09:53:00
4:53 AM,53.1,50.0,89,30.17,10.0,Calm,Calm,-,N/A,,Clear,0,2012-11-19 10:53:00
5:53 AM,57.9,53.1,84,30.17,10.0,Calm,Calm,-,N/A,,Overcast,0,2012-11-19 11:53:00
6:53 AM,61.0,54.0,78,30.19,10.0,Calm,Calm,-,N/A,,Overcast,0,2012-11-19 12:53:00
7:53 AM,62.1,55.0,78,30.22,10.0,Calm,Calm,-,N/A,,Overcast,0,2012-11-19 13:53:00
8:53 AM,64.9,55.9,73,30.23,10.0,Calm,Calm,-,N/A,,Overcast,0,2012-11-19 14:53:00
9:53 AM,70.0,57.0,63,30.24,10.0,ESE,5.8,-,N/A,,Overcast,120,2012-11-19 15:53:00
10:53 AM,73.0,57.0,57,30.23,10.0,SSE,5.8,-,N/A,,Overcast,150,2012-11-19 16:53:00
11:53 AM,75.0,57.0,53,30.21,10.0,Variable,4.6,-,N/A,,Overcast,0,2012-11-19 17:53:00
12:53 PM,75.9,55.9,50,30.19,10.0,South,4.6,-,N/A,,Overcast,180,2012-11-19 18:53:00
1:53 PM,79.0,55.9,45,30.15,10.0,South,5.8,-,N/A,,Overcast,180,2012-11-19 19:53:00
2:53 PM,79.0,55.9,45,30.13,10.0,WSW,3.5,-,N/A,,Overcast,240,2012-11-19 20:53:00
3:53 PM,80.1,55.0,42,30.12,10.0,ESE,3.5,-,N/A,,Overcast,120,2012-11-19 21:53:00
4:53 PM,75.9,55.9,50,30.12,10.0,ESE,13.8,-,N/A,,Overcast,120,2012-11-19 22:53:00
5:53 PM,73.9,57.0,55,30.14,10.0,ESE,9.2,-,N/A,,Overcast,120,2012-11-19 23:53:00
6:53 PM,72.0,57.0,59,30.17,10.0,ESE,8.1,-,N/A,,Overcast,120,2012-11-20 00:53:00
7:53 PM,71.1,57.9,63,30.18,10.0,ESE,8.1,-,N/A,,Mostly Cloudy,120,2012-11-20 01:53:00
8:53 PM,68.0,57.0,68,30.18,10.0,ESE,4.6,-,N/A,,Clear,110,2012-11-20 02:53:00
9:53 PM,66.0,57.0,73,30.19,10.0,Calm,Calm,-,N/A,,Clear,0,2012-11-20 03:53:00
10:53 PM,64.0,57.0,78,30.17,10.0,South,4.6,-,N/A,,Clear,170,2012-11-20 04:53:00
11:53 PM,63.0,57.0,81,30.17,10.0,Calm,Calm,-,N/A,,Clear,0,2012-11-20 05:53:00